TimeEDT,TemperatureF,Dew PointF,Humidity,Sea Level PressureIn,VisibilityMPH,Wind Direction,Wind SpeedMPH,Gust SpeedMPH,PrecipitationIn,Events,Conditions,WindDirDegrees,DateUTC
12:15 AM,34.7,33.3,94,30.06,0.2,SE,3.5,-,N/A,Rain,Rain,140,2013-03-18 04:15:00
12:35 AM,34.2,33.1,96,30.06,0.2,Calm,Calm,-,N/A,Rain,Light Rain,0,2013-03-18 04:35:00
12:55 AM,33.8,32.9,96,30.07,0.8,Calm,Calm,-,N/A,,Light Drizzle,0,2013-03-18 04:55:00
1:15 AM,33.8,32.9,96,30.06,0.5,SE,3.5,-,N/A,Rain,Light Rain,140,2013-03-18 05:15:00
1:35 AM,33.6,32.5,96,30.06,0.5,Calm,Calm,-,N/A,,Drizzle,0,2013-03-18 05:35:00
1:55 AM,33.1,32.0,96,30.06,0.2,SSE,3.5,-,N/A,,Drizzle,150,2013-03-18 05:55:00
2:15 AM,32.9,32.0,96,30.06,0.2,Calm,Calm,-,N/A,,Light Drizzle,0,2013-03-18 06:15:00
2:35 AM,32.4,31.8,98,30.05,0.8,SE,5.8,-,N/A,,Overcast,130,2013-03-18 06:35:00
2:55 AM,32.4,32.0,99,30.05,1.0,Calm,Calm,-,N/A,,Overcast,0,2013-03-18 06:55:00
3:15 AM,32.4,31.8,98,30.06,0.5,SE,3.5,-,N/A,,Overcast,130,2013-03-18 07:15:00
3:35 AM,32.4,32.0,99,30.05,1.0,SE,4.6,-,N/A,,Overcast,130,2013-03-18 07:35:00
3:55 AM,32.0,31.6,99,30.05,0.5,Calm,Calm,-,N/A,,Overcast,0,2013-03-18 07:55:00
4:15 AM,32.0,31.1,96,30.04,1.5,SE,4.6,-,N/A,,Overcast,140,2013-03-18 08:15:00
4:35 AM,32.0,31.1,96,30.04,0.5,Calm,Calm,-,N/A,Fog,Fog,0,2013-03-18 08:35:00
5:15 AM,32.0,31.1,96,30.04,0.5,SSE,3.5,-,N/A,Fog,Fog,160,2013-03-18 09:15:00
5:35 AM,32.0,31.1,96,30.04,0.2,Calm,Calm,-,N/A,Fog,Fog,0,2013-03-18 09:35:00
5:55 AM,32.0,31.1,96,30.04,0.2,Calm,Calm,-,N/A,Fog,Fog,0,2013-03-18 09:55:00
6:15 AM,32.0,31.1,96,30.05,0.2,SSE,3.5,-,N/A,Fog,Fog,150,2013-03-18 10:15:00
6:35 AM,31.8,30.9,96,30.04,0.2,SE,3.5,-,N/A,,Overcast,140,2013-03-18 10:35:00
6:55 AM,31.6,30.7,96,30.05,0.2,SE,4.6,-,N/A,,Overcast,140,2013-03-18 10:55:00
7:15 AM,31.5,30.6,96,30.05,0.5,SSE,5.8,-,N/A,Fog,Light Freezing Fog,150,2013-03-18 11:15:00
7:35 AM,31.1,30.2,96,30.04,0.5,SSE,4.6,-,N/A,Fog,Light Freezing Fog,150,2013-03-18 11:35:00
8:15 AM,30.9,30.0,96,30.05,0.2,SSE,5.8,-,N/A,Fog,Light Freezing Fog,160,2013-03-18 12:15:00
8:35 AM,30.7,29.8,96,30.04,0.2,SSE,4.6,-,N/A,,Overcast,150,2013-03-18 12:35:00
9:15 AM,30.7,29.8,96,30.05,0.8,SSE,5.8,-,N/A,,Overcast,150,2013-03-18 13:15:00
9:35 AM,30.6,29.7,96,30.04,0.5,SSE,5.8,-,N/A,,Overcast,160,2013-03-18 13:35:00
9:55 AM,30.4,29.5,96,30.03,1.5,SSE,5.8,-,N/A,,Overcast,150,2013-03-18 13:55:00
10:15 AM,30.2,29.3,96,30.03,0.5,SSE,6.9,-,N/A,Fog,Light Freezing Fog,150,2013-03-18 14:15:00
10:35 AM,30.6,29.7,96,30.04,0.2,SSE,3.5,-,N/A,Fog,Light Freezing Fog,150,2013-03-18 14:35:00
10:55 AM,30.7,29.8,96,30.04,0.2,SSE,6.9,-,N/A,Fog,Light Freezing Fog,150,2013-03-18 14:55:00
11:15 AM,30.9,30.0,96,30.03,0.2,SSE,4.6,-,N/A,Fog,Light Freezing Fog,160,2013-03-18 15:15:00
11:35 AM,30.9,30.0,96,30.02,0.5,SE,4.6,-,N/A,Fog,Light Freezing Fog,140,2013-03-18 15:35:00
11:55 AM,31.1,30.2,96,30.01,0.2,SSE,3.5,-,N/A,Fog,Light Freezing Fog,150,2013-03-18 15:55:00
12:15 PM,31.5,30.6,96,30.01,0.2,SSE,4.6,-,N/A,Fog,Light Freezing Fog,150,2013-03-18 16:15:00
12:35 PM,31.5,30.6,96,30.00,0.2,SE,5.8,-,N/A,Fog,Light Freezing Fog,140,2013-03-18 16:35:00
1:15 PM,31.8,30.9,96,29.99,0.2,SE,3.5,-,N/A,Fog,Fog,140,2013-03-18 17:15:00
1:35 PM,32.0,31.5,98,29.97,0.2,Calm,Calm,-,N/A,Fog,Fog,0,2013-03-18 17:35:00
2:15 PM,32.0,31.1,96,29.95,0.5,SE,5.8,-,N/A,,Overcast,140,2013-03-18 18:15:00
2:35 PM,32.0,31.6,99,29.93,0.2,SE,4.6,-,N/A,Fog,Fog,140,2013-03-18 18:35:00
2:55 PM,32.0,31.6,99,29.93,0.2,SSE,3.5,-,N/A,Fog,Fog,150,2013-03-18 18:55:00
3:15 PM,32.0,31.8,99,29.92,0.2,SE,3.5,-,N/A,Snow,Light Snow,140,2013-03-18 19:15:00
3:35 PM,32.4,32.0,99,29.91,0.2,SE,4.6,-,N/A,,Light Drizzle,130,2013-03-18 19:35:00
3:55 PM,32.4,32.0,99,29.89,0.2,SE,4.6,-,N/A,Rain,Light Rain,130,2013-03-18 19:55:00
4:15 PM,32.2,31.8,99,29.89,0.2,SE,3.5,-,N/A,Rain,Light Rain,140,2013-03-18 20:15:00
4:35 PM,32.4,32.0,99,29.91,0.2,Calm,Calm,-,N/A,Snow,Light Snow,0,2013-03-18 20:35:00
4:55 PM,32.4,32.0,99,29.88,0.2,SE,4.6,-,0.01,,Overcast,130,2013-03-18 20:55:00
5:15 PM,32.0,31.6,99,29.90,0.5,Calm,Calm,-,0.01,,Overcast,0,2013-03-18 21:15:00
5:35 PM,32.2,31.8,99,29.92,1.2,Calm,Calm,-,0.06,Snow,Light Snow,0,2013-03-18 21:35:00
5:55 PM,32.7,32.0,97,29.93,3.0,NNW,4.6,-,0.08,Rain,Light Rain,330,2013-03-18 21:55:00
6:15 PM,32.9,32.0,96,29.92,1.2,Calm,Calm,-,0.02,Rain,Light Rain,0,2013-03-18 22:15:00
6:35 PM,33.3,32.2,96,29.92,1.0,NE,3.5,-,0.06,Rain,Light Rain,40,2013-03-18 22:35:00
6:55 PM,33.4,32.4,96,29.92,7.0,Calm,Calm,-,0.06,Rain,Light Rain,0,2013-03-18 22:55:00
7:15 PM,33.3,32.4,96,29.91,0.2,Calm,Calm,-,N/A,Rain,Light Rain,0,2013-03-18 23:15:00
7:35 PM,33.3,32.2,96,29.89,0.2,Calm,Calm,-,N/A,Fog,Fog,0,2013-03-18 23:35:00
7:55 PM,33.3,32.2,96,29.88,1.0,Calm,Calm,-,N/A,Rain,Light Rain,0,2013-03-18 23:55:00
8:15 PM,33.3,32.2,96,29.87,1.5,Calm,Calm,-,N/A,Rain,Light Rain,0,2013-03-19 00:15:00
8:35 PM,33.3,32.2,96,29.85,0.5,SE,3.5,-,N/A,Fog,Fog,140,2013-03-19 00:35:00
8:55 PM,33.8,32.9,96,29.81,0.5,SE,5.8,-,N/A,Fog,Fog,130,2013-03-19 00:55:00
9:15 PM,33.8,32.7,96,29.83,0.5,Calm,Calm,-,N/A,Fog,Fog,0,2013-03-19 01:15:00
9:35 PM,33.8,32.9,96,29.84,0.5,Calm,Calm,-,N/A,Fog,Fog,0,2013-03-19 01:35:00
9:55 PM,33.1,32.2,96,29.84,0.2,SSE,4.6,-,N/A,Fog,Fog,150,2013-03-19 01:55:00
10:15 PM,32.9,32.0,96,29.83,0.2,South,3.5,-,N/A,Fog,Fog,170,2013-03-19 02:15:00
10:35 PM,33.1,32.2,96,29.83,0.2,Calm,Calm,-,N/A,Fog,Fog,0,2013-03-19 02:35:00
10:55 PM,33.1,32.2,96,29.82,0.5,Calm,Calm,-,N/A,Fog,Fog,0,2013-03-19 02:55:00
11:15 PM,33.3,32.2,96,29.83,0.2,Calm,Calm,-,N/A,Fog,Fog,0,2013-03-19 03:15:00
11:35 PM,35.8,34.7,96,29.83,3.0,Calm,Calm,-,N/A,,Scattered Clouds,0,2013-03-19 03:35:00
11:55 PM,34.7,33.8,97,29.83,7.0,Calm,Calm,-,N/A,,Clear,0,2013-03-19 03:55:00